Regional Weather Roundup
Issued by NWS

Home | Current Version | Previous Version | Graphics & Text | Print | Product List | Glossary On
Versions: 1 2 3 4 5 6 7 8 9 10 11 12 13 14 15 16 17 18 19 20 21 22 23 24 25 26 27 28 29 30 31 32 33 34 35 36 37 38 39 40 41 42 43 44 45 46 47 48
957
ASUS45 KCYS 061010
RWRWY

WYOMING REGIONAL WEATHER ROUNDUP
NATIONAL WEATHER SERVICE CHEYENNE WY
300 AM MST SAT FEB 06 2016

NOTE:  "FAIR" INDICATES FEW OR NO CLOUDS BELOW 12,000 FEET
WITH NO SIGNIFICANT WEATHER AND/OR OBSTRUCTIONS TO VISIBILITY.

WYZ001-061100-
YELLOWSTONE NATIONAL PARK

CITY           SKY/WX    TMP DP  RH WIND       PRES   REMARKS
LK YELLOWSTONE   N/A     20  17  88 VRB5      30.33S WCI  13
W YELLOWSTONE  NOT AVBL

$$
WYZ002>013-054>058-071-098>099-061100-
NORTHERN WYOMING

CITY           SKY/WX    TMP DP  RH WIND       PRES   REMARKS
JACKSON        CLOUDY    16  14  93 N5        30.39S WCI   9
CODY           FAIR      37  16  41 SW22G32   30.14S WCI  27
GREYBULL       FAIR      17  13  84 SE5       30.21F WCI  10
WORLAND        FAIR      14  11  87 S3        30.20F
SHERIDAN       FAIR      24  15  68 CALM      30.05F
BUFFALO        FAIR      34  16  47 S5        30.05F WCI  30
GILLETTE       FAIR      29  16  58 SW20      30.06F WCI  16
HULETT         FAIR      32  14  47 SW10      30.06F WCI  24
NEWCASTLE      FAIR      19  12  73 E3        30.14F

$$
WYZ014>020-022>026-101>103-061100-
CENTRAL WYOMING

CITY           SKY/WX    TMP DP  RH WIND       PRES   REMARKS
BIG PINEY      FAIR       8   3  80 SW3       30.36S
PINEDALE       FAIR      12   9  85 W6        30.35S WCI   3
DUBOIS         FAIR      21  16  79 N20G25    30.25F WCI   6
LANDER         FAIR      14   7  73 S6        30.19F WCI   5
RIVERTON       FAIR      18   9  68 SW6       30.21S WCI  10
CASPER         FAIR      23  16  74 SW24G39   30.21R WCI   7
DOUGLAS        FAIR      22  13  68 W9          N/A  WCI  12

$$
WYZ021-027>030-104>119-061100-
SOUTHERN WYOMING

CITY           SKY/WX    TMP DP  RH WIND       PRES   REMARKS
EVANSTON       FAIR      14  11  87 S9        30.42F WCI   2
FORT BRIDGER   SUNNY     19  19 100 W8        30.43S WCI   9
ROCK SPRINGS   MOCLDY    21  15  78 S7        30.38R WCI  12
DIXON          FAIR       5   1  84 CALM      30.47S
RAWLINS        CLOUDY    21  13  71 S15G28    30.35R WCI   8
SARATOGA       FAIR      10   3  72 SE7       30.37F WCI   0
LARAMIE        FAIR      19   9  65 SW20      30.24R WCI   3
CHEYENNE       FAIR      28  12  51 W18       30.17F WCI  15
TORRINGTON     FAIR      29  17  61 W10       30.17F WCI  20
PINE BLUFFS    FAIR      19  10  68 CALM      30.20F

$$




USA.gov is the U.S. government's official web portal to all federal, state and local government web resources and services.